Weather History for Birmingham, United Kingdom

Change the Weather History Date:

Saturday, January 26, 2013

  Actual Average Record
Temperature  
Mean Temperature 40 °F -  
Max Temperature 44 °F 43 °F 57 °F (2003)
Min Temperature 35 °F 32 °F 24 °F (1997)
Degree Days  
Heating Degree Days 26    
Moisture  
Dew Point 37 °F    
Average Humidity 89    
Maximum Humidity 100    
Minimum Humidity 81    
Precipitation  
Precipitation 0.00 in 0.06 in - ()
Sea Level Pressure  
Sea Level Pressure 29.63 in    
Wind  
Wind Speed 8 mph ()    
Max Wind Speed 17 mph    
Max Gust Speed 28 mph    
Visibility 5.5 miles    
Events Rain    
Averages and records for this station are not official NWS values.
T = Trace of Precipitation, MM = Missing Value Source: Averaged Metar Reports

Daily Weather History Graph

Daily Weather History Graph

Search for Another Location

Airport:

Trip Planner

Search our weather history database for the weather conditions in past years. The results will help you decide how hot, cold, wet, or windy it might be!

Date:

Astronomy

Jan. 26, 2013 Rise Set
Actual Time 7:57 AM GMT 4:42 PM GMT
Civil Twilight 7:19 AM GMT 5:20 PM GMT
Nautical Twilight 6:37 AM GMT 6:02 PM GMT
Astronomical Twilight 5:57 AM GMT 6:42 PM GMT
Moon 4:28 PM GMT (1/26) 7:03 AM GMT (1/26)
Length of Visible Light 10h 01m
Length of Day
8h 45m
Full, 100% of the Moon is Illuminated
Jan 26
Full
Jan 27
Full
Feb 3
Last Quarter
Feb 10
New
Feb 17
First Quarter

Hourly Weather History & Observations

Time (GMT) Temp. Windchill Dew Point Humidity Pressure Visibility Wind Dir Wind Speed Gust Speed Precip Events Conditions
12:20 AM 35.6 °F 28.0 °F 33.8 °F 93% 29.47 in 2.8 mi South 10.4 mph - N/A Rain Light Rain
12:50 AM 35.6 °F 29.2 °F 33.8 °F 93% 29.47 in 3.1 mi South 8.1 mph - N/A Rain Light Rain
1:20 AM 35.6 °F 29.2 °F 33.8 °F 93% 29.47 in 3.1 mi South 8.1 mph - N/A Rain Light Rain
1:50 AM 35.6 °F 30.7 °F 35.6 °F 100% 29.50 in - South 5.8 mph - N/A   Drizzle
2:20 AM 35.6 °F - 35.6 °F 100% 29.50 in 3.1 mi Variable 2.3 mph - N/A   Drizzle
2:50 AM 35.6 °F 31.7 °F 35.6 °F 100% 29.53 in 1.9 mi SSW 4.6 mph - N/A   Drizzle
3:20 AM 37.4 °F 30.8 °F 35.6 °F 93% 29.56 in 6.2 mi WNW 9.2 mph - N/A   Drizzle
3:50 AM 37.4 °F 29.3 °F 35.6 °F 93% 29.56 in 6.2 mi NW 12.7 mph - N/A   Mostly Cloudy
4:20 AM 37.4 °F 29.3 °F 33.8 °F 87% 29.59 in 6.2 mi NW 12.7 mph - N/A   Partly Cloudy
4:50 AM 37.4 °F 30.8 °F 35.6 °F 93% 29.59 in 6.2 mi NW 9.2 mph - N/A   Partly Cloudy
5:20 AM 35.6 °F 30.7 °F 33.8 °F 93% 29.62 in 6.2 mi WNW 5.8 mph - N/A   Scattered Clouds
5:50 AM 35.6 °F 32.8 °F 33.8 °F 93% 29.65 in 6.2 mi NW 3.5 mph - N/A   Scattered Clouds
6:20 AM 35.6 °F 31.7 °F 35.6 °F 100% 29.65 in 6.2 mi West 4.6 mph - N/A   Scattered Clouds
6:50 AM 35.6 °F 31.7 °F 33.8 °F 93% 29.68 in 5.6 mi West 4.6 mph - N/A   Partly Cloudy
7:20 AM 35.6 °F 30.7 °F 33.8 °F 93% 29.68 in - West 5.8 mph - N/A   Clear
7:50 AM 35.6 °F 31.7 °F 33.8 °F 93% 29.71 in - WSW 4.6 mph - N/A   Clear
8:20 AM 35.6 °F 31.7 °F 33.8 °F 93% 29.71 in - West 4.6 mph - N/A   Clear
8:50 AM 37.4 °F 32.8 °F 33.8 °F 87% 29.74 in - West 5.8 mph - N/A   Clear
9:20 AM 37.4 °F 33.8 °F 33.8 °F 87% 29.74 in - West 4.6 mph - N/A   Clear
9:50 AM 37.4 °F 32.8 °F 33.8 °F 87% 29.74 in - West 5.8 mph - N/A   Clear
10:20 AM 39.2 °F 34.2 °F 35.6 °F 87% 29.74 in - West 6.9 mph - N/A   Clear
10:50 AM 39.2 °F 33.6 °F 35.6 °F 87% 29.77 in - WSW 8.1 mph - N/A   Clear
11:20 AM 41.0 °F 35.2 °F 35.6 °F 81% 29.77 in - West 9.2 mph - N/A   Clear
11:50 AM 41.0 °F 37.1 °F 35.6 °F 81% 29.77 in 6.2 mi WSW 5.8 mph - N/A   Partly Cloudy
12:20 PM 41.0 °F 36.4 °F 35.6 °F 81% 29.77 in 6.2 mi WSW 6.9 mph - N/A   Scattered Clouds
12:50 PM 41.0 °F 35.8 °F 35.6 °F 81% 29.77 in 6.2 mi SW 8.1 mph - N/A   Mostly Cloudy
1:20 PM 41.0 °F 35.8 °F 35.6 °F 81% 29.77 in 6.2 mi SSW 8.1 mph - N/A   Scattered Clouds
1:50 PM 41.0 °F 36.4 °F 35.6 °F 81% 29.74 in 6.2 mi SSW 6.9 mph - N/A   Mostly Cloudy
2:20 PM 41.0 °F 35.8 °F 37.4 °F 87% 29.74 in 6.2 mi SW 8.1 mph - N/A   Scattered Clouds
2:50 PM 42.8 °F 37.5 °F 37.4 °F 81% 29.74 in 6.2 mi SSW 9.2 mph - N/A   Mostly Cloudy
3:20 PM 42.8 °F 37.0 °F 37.4 °F 81% 29.71 in 6.2 mi SSW 10.4 mph - N/A   Scattered Clouds
3:50 PM 41.0 °F 35.8 °F 39.2 °F 93% 29.71 in 6.2 mi SSW 8.1 mph - N/A   Scattered Clouds
4:20 PM 41.0 °F 34.7 °F 39.2 °F 93% 29.68 in 6.2 mi SSW 10.4 mph - N/A   Partly Cloudy
4:50 PM 42.8 °F 37.0 °F 39.2 °F 87% 29.68 in - SSW 10.4 mph - N/A   Clear
5:20 PM 42.8 °F 36.2 °F 39.2 °F 87% 29.68 in - SSW 12.7 mph - N/A   Clear
5:50 PM 42.8 °F 37.0 °F 37.4 °F 81% 29.65 in - South 10.4 mph - N/A   Clear
6:20 PM 42.8 °F 37.5 °F 37.4 °F 81% 29.62 in - South 9.2 mph - N/A   Clear
6:50 PM 41.0 °F 34.7 °F 37.4 °F 87% 29.59 in - South 10.4 mph - N/A   Clear
7:20 PM 41.0 °F 34.7 °F 37.4 °F 87% 29.59 in - South 10.4 mph - N/A   Clear
7:50 PM 42.8 °F 35.4 °F 39.2 °F 87% 29.53 in 6.2 mi South 15.0 mph - N/A Rain Light Rain
8:20 PM 42.8 °F 37.0 °F 39.2 °F 87% 29.56 in 6.2 mi South 10.4 mph - N/A   Partly Cloudy
8:50 PM 44.6 °F 39.2 °F 41.0 °F 87% 29.53 in 5.6 mi SSW 10.4 mph - N/A Rain Light Rain
9:50 PM 44.6 °F 37.8 °F 42.8 °F 93% 29.47 in 3.7 mi South 15.0 mph - N/A Rain Rain
10:20 PM 44.6 °F 38.1 °F 42.8 °F 93% 29.44 in 5.6 mi South 13.8 mph - N/A Rain Light Rain Showers
10:50 PM 44.6 °F 38.1 °F 42.8 °F 93% 29.44 in 6.2 mi South 13.8 mph - N/A   Mostly Cloudy
11:20 PM 44.6 °F 37.2 °F 42.8 °F 93% 29.42 in 6.2 mi South 17.3 mph - N/A Rain Light Rain
11:50 PM 44.6 °F 37.4 °F 42.8 °F 93% 29.39 in 6.2 mi South 16.1 mph 27.6 mph N/A Rain Light Drizzle